Location: Kampung Segan
(3.1399°N, 113.1002°E)
Time: 13:46:21
(UTC+00:00)

MOS 1-B Rocket - Pass Details

Date: 18 October 2025
Orbit: 891 x 1603 km, 99.0° (Epoch: 16 November)

Event Time Altitude Azimuth Distance (km) Brightness Sun altitude
Rises 20:13:42 0° 11° (NNE) 4,624 7.5 -29.8°
Reaches altitude 10° 20:16:28 10° 11° (N) 3,702 7.0 -29.1°
Maximum altitude 20:25:28 85° 284° (WNW) 1,608 4.9 -26.9°
Drops below altitude 10° 20:34:41 10° 196° (SSW) 3,782 7.0 -24.7°
Sets 20:37:32 0° 195° (SSW) 4,727 7.5 -24.0°
